{"data":{"norad_id":59324,"epoch":"2026-09-21T01:24:11.301696Z","epoch_age_seconds":113992,"freshness":"FRESH","line1":"1 59324U 24057E   26264.05846414  .00000994  00000+0  45638-4 0  9994","line2":"2 59324  43.0019 164.1294 0001184 275.7522  84.3195 15.27578152139717","mean_motion":15.27578152,"eccentricity":0.0001184,"inclination_deg":43.0019,"raan_deg":164.1294,"arg_perigee_deg":275.7522,"mean_anomaly_deg":84.3195,"bstar":4.5638e-5,"rev_number":13971,"period_min":94.266862753612,"perigee_km":482.2422645331,"apogee_km":483.86699471099,"semimajor_km":6861.191629622,"source":"CELESTRAK","updated_at":"2026-09-22T09:00:48.898504Z"}}